Ceiba, PR

7:35 PM AST on July 25, 2016 (GMT -0400)
Roosevelt Roads Ns

Weather History for TJNR - June, 2013

Change the Weather History Date:

Friday, June 28, 2013

  Actual Average Record
Temperature  
Mean Temperature 81 °F -  
Max Temperature 87 °F 84 °F 91 °F (2012)
Min Temperature 75 °F 74 °F 46 °F (1997)
Cooling Degree Days 16    
Growing Degree Days 31 (Base 50)    
Moisture  
Dew Point 76 °F    
Average Humidity 81    
Maximum Humidity 94    
Minimum Humidity 69    
Precipitation  
Precipitation 0.16 in - - ()
Sea Level Pressure  
Sea Level Pressure 30.05 in    
Wind  
Wind Speed 5 mph (ESE)    
Max Wind Speed 14 mph    
Max Gust Speed -    
Visibility 8 miles    
Events Rain    
Averages and records for this station are not official NWS values.
T = Trace of Precipitation, MM = Missing Value Source: NWS Daily Summary

Daily Weather History Graph

Daily Weather History Graph

Search for Another Location

Airport or City:

Trip Planner

Search our weather history database for the weather conditions in past years. The results will help you decide how hot, cold, wet, or windy it might be!

Date:

Astronomy

Jun. 28, 2013 Rise Set
Actual Time 5:49 AM AST 7:02 PM AST
Civil Twilight 5:25 AM AST 7:26 PM AST
Nautical Twilight 4:56 AM AST 7:55 PM AST
Astronomical Twilight 4:26 AM AST 8:24 PM AST
Moon 11:25 PM AST (6/28) 11:01 AM AST (6/28)
Length of Visible Light 14h 01m
Length of Day
13h 13m
Waning Gibbous, 66% of the Moon is Illuminated
Jun 28
Waning Gibbous
Jun 30
Last Quarter
Jul 8
New
Jul 15
First Quarter
Jul 22
Full

Hourly Weather History & Observations

Time (AST) Temp. Heat Index Dew Point Humidity Pressure Visibility Wind Dir Wind Speed Gust Speed Precip Events Conditions
12:53 AM 81.0 °F 87.9 °F 77.0 °F 88% 30.05 in 9.0 mi ESE 3.5 mph - N/A   Partly Cloudy
1:20 AM 80.6 °F 87.1 °F 77.0 °F 89% 30.05 in 9.0 mi Calm Calm - N/A   Mostly Cloudy
1:53 AM 81.0 °F 87.3 °F 75.9 °F 85% 30.04 in 9.0 mi Calm Calm - N/A   Overcast
2:33 AM 80.6 °F 86.2 °F 75.2 °F 84% 30.03 in 9.0 mi SSE 5.8 mph - N/A   Scattered Clouds
2:53 AM 80.1 °F 85.4 °F 75.9 °F 87% 30.04 in 9.0 mi SSE 3.5 mph - N/A   Scattered Clouds
3:53 AM 79.0 °F - 75.9 °F 90% 30.03 in 9.0 mi Calm Calm - N/A   Scattered Clouds
4:05 AM 78.8 °F - 75.2 °F 89% 30.03 in 9.0 mi Calm Calm - N/A   Mostly Cloudy
4:53 AM 78.1 °F - 75.0 °F 90% 30.04 in 3.0 mi South 10.4 mph - 0.00 in Rain Heavy Rain
4:59 AM 77.0 °F - 73.4 °F 89% 30.04 in 1.5 mi SSE 4.6 mph - 0.00 in Rain Heavy Rain
5:10 AM 77.0 °F - 73.4 °F 89% 30.03 in 3.0 mi ESE 6.9 mph - N/A Rain Light Rain
5:30 AM 75.2 °F - 73.4 °F 94% 30.04 in 9.0 mi Calm Calm - N/A   Scattered Clouds
5:53 AM 75.9 °F - 73.9 °F 94% 30.04 in 8.0 mi Calm Calm - N/A   Scattered Clouds
6:53 AM 79.0 °F - 75.9 °F 90% 30.06 in 8.0 mi Calm Calm - 0.01 in   Mostly Cloudy
7:07 AM 80.6 °F 87.1 °F 77.0 °F 89% 30.06 in 8.0 mi Calm Calm - N/A   Mostly Cloudy
7:19 AM 82.4 °F 90.9 °F 77.0 °F 84% 30.06 in 8.0 mi Calm Calm - 0.01 in   Mostly Cloudy
7:45 AM 84.2 °F 96.1 °F 78.8 °F 84% 30.06 in 8.0 mi SE 9.2 mph - 0.01 in   Overcast
7:53 AM 84.0 °F 93.7 °F 77.0 °F 79% 30.06 in 8.0 mi ESE 8.1 mph - 0.01 in   Overcast
8:13 AM 84.2 °F 92.3 °F 75.2 °F 74% 30.06 in 8.0 mi ESE 6.9 mph - 0.01 in   Scattered Clouds
8:53 AM 84.0 °F 92.6 °F 75.9 °F 76% 30.06 in 8.0 mi ESE 11.5 mph - 0.01 in   Mostly Cloudy
9:53 AM 86.0 °F 96.0 °F 75.9 °F 72% 30.07 in 9.0 mi ESE 9.2 mph - 0.02 in   Scattered Clouds
10:53 AM 87.1 °F 98.8 °F 77.0 °F 72% 30.07 in 9.0 mi ESE 13.8 mph - 0.01 in   Clear
11:53 AM 87.1 °F 97.3 °F 75.9 °F 69% 30.07 in 9.0 mi East 9.2 mph - 0.01 in   Clear
12:53 PM 86.0 °F 96.0 °F 75.9 °F 72% 30.06 in 9.0 mi ESE 11.5 mph - 0.02 in   Clear
1:53 PM 86.0 °F 96.0 °F 75.9 °F 72% 30.04 in 9.0 mi ESE 11.5 mph - 0.02 in   Partly Cloudy
2:53 PM 87.1 °F 97.3 °F 75.9 °F 69% 30.03 in 10.0 mi ESE 13.8 mph - 0.01 in   Partly Cloudy
3:53 PM 86.0 °F 96.0 °F 75.9 °F 72% 30.02 in 10.0 mi East 10.4 mph - 0.02 in   Mostly Cloudy
4:53 PM 84.0 °F 91.9 °F 75.0 °F 74% 30.02 in 9.0 mi East 9.2 mph - N/A   Clear
5:53 PM 84.0 °F 92.6 °F 75.9 °F 76% 30.01 in 9.0 mi East 8.1 mph - 0.01 in   Clear
6:53 PM 82.9 °F 89.4 °F 73.9 °F 74% 30.03 in 9.0 mi East 6.9 mph - 0.01 in   Clear
7:53 PM 82.0 °F 88.6 °F 75.0 °F 79% 30.04 in 10.0 mi East 6.9 mph - N/A   Overcast
8:53 PM 82.0 °F 89.4 °F 75.9 °F 82% 30.04 in 9.0 mi ESE 5.8 mph - N/A   Mostly Cloudy
9:45 PM 82.4 °F 89.5 °F 75.2 °F 79% 30.05 in 10.0 mi East 5.8 mph - N/A   Overcast
9:53 PM 82.0 °F 89.4 °F 75.9 °F 82% 30.06 in 10.0 mi East 6.9 mph - N/A   Overcast
10:04 PM 82.4 °F 89.5 °F 75.2 °F 79% 30.06 in 10.0 mi East 6.9 mph - N/A   Mostly Cloudy
10:30 PM 82.4 °F 89.5 °F 75.2 °F 79% 30.06 in 10.0 mi East 6.9 mph - N/A   Overcast
10:53 PM 82.0 °F 88.6 °F 75.0 °F 79% 30.06 in 10.0 mi East 9.2 mph - N/A   Mostly Cloudy
11:03 PM 82.4 °F 89.5 °F 75.2 °F 79% 30.06 in 10.0 mi East 8.1 mph - N/A   Mostly Cloudy
11:53 PM 81.0 °F 86.7 °F 75.0 °F 82% 30.06 in 10.0 mi East 5.8 mph - N/A   Mostly Cloudy